Kenosha, WI

8:37 AM CST on January 18, 2018 (GMT -0600)
Kenosha Regional

Weather History for KENW - September, 2012

Change the Weather History Date:

Saturday, September 1, 2012

  Actual Average Record
Temperature  
Mean Temperature 70 °F -  
Max Temperature 75 °F 75 °F 100 °F (1953)
Min Temperature 68 °F 57 °F 47 °F (1967)
Cooling Degree Days 6    
Growing Degree Days 20 (Base 50)    
Moisture  
Dew Point 60 °F    
Average Humidity 69    
Maximum Humidity 87    
Minimum Humidity 55    
Precipitation  
Precipitation 0.23 in - - ()
Sea Level Pressure  
Sea Level Pressure 30.07 in    
Wind  
Wind Speed 11 mph (ENE)    
Max Wind Speed 20 mph    
Max Gust Speed 24 mph    
Visibility 9 miles    
Events Rain    
Averages and records for this station are not official NWS values.
T = Trace of Precipitation, MM = Missing Value Source: NWS Daily Summary

Daily Weather History Graph

Daily Weather History Graph

Search for Another Location

Airport or City:

Trip Planner

Search our weather history database for the weather conditions in past years. The results will help you decide how hot, cold, wet, or windy it might be!

Date:

Astronomy

Sep. 01, 2012 Rise Set
Actual Time 6:17 AM CDT 7:25 PM CDT
Civil Twilight 5:48 AM CDT 7:54 PM CDT
Nautical Twilight 5:13 AM CDT 8:28 PM CDT
Astronomical Twilight 4:36 AM CDT 9:04 PM CDT
Moon 7:38 PM CDT (9/1) 7:27 AM CDT (9/1)
Length of Visible Light 14h 05m
Length of Day
13h 07m
Full, 99% of the Moon is Illuminated
Sep 1
Full
Sep 8
Last Quarter
Sep 15
New
Sep 22
First Quarter
Sep 29
Full

Hourly Weather History & Observations

Time (CDT) Temp. Dew Point Humidity Pressure Visibility Wind Dir Wind Speed Gust Speed Precip Events Conditions
12:53 AM 68.0 °F 57.9 °F 70% 30.09 in 10.0 mi ENE 5.8 mph - N/A   Clear
1:53 AM 69.1 °F 61.0 °F 75% 30.09 in 10.0 mi ENE 6.9 mph - N/A   Overcast
2:53 AM 72.0 °F 59.0 °F 64% 30.09 in 10.0 mi ENE 10.4 mph - N/A   Overcast
3:53 AM 72.0 °F 59.0 °F 64% 30.10 in 10.0 mi ENE 12.7 mph - N/A   Overcast
4:53 AM 72.0 °F 57.0 °F 59% 30.08 in 10.0 mi ENE 15.0 mph - N/A   Partly Cloudy
5:53 AM 71.1 °F 57.0 °F 61% 30.08 in 10.0 mi ENE 12.7 mph 19.6 mph N/A   Clear
6:53 AM 71.1 °F 55.9 °F 59% 30.10 in 10.0 mi ENE 13.8 mph - N/A   Clear
7:53 AM 72.0 °F 55.9 °F 57% 30.10 in 10.0 mi ENE 16.1 mph - N/A   Clear
8:53 AM 73.0 °F 57.9 °F 59% 30.09 in 10.0 mi ENE 17.3 mph 23.0 mph N/A   Clear
9:53 AM 73.9 °F 57.0 °F 55% 30.11 in 10.0 mi ENE 17.3 mph 24.2 mph N/A   Clear
10:53 AM 73.9 °F 59.0 °F 59% 30.11 in 10.0 mi ENE 16.1 mph - N/A   Mostly Cloudy
11:53 AM 73.9 °F 60.1 °F 62% 30.09 in 10.0 mi ENE 19.6 mph 24.2 mph N/A   Clear
12:53 PM 73.0 °F 59.0 °F 61% 30.07 in 10.0 mi ENE 16.1 mph - N/A   Partly Cloudy
1:53 PM 73.9 °F 59.0 °F 59% 30.06 in 10.0 mi NE 11.5 mph 20.7 mph N/A   Mostly Cloudy
2:35 PM 69.8 °F 60.8 °F 73% 30.09 in 2.0 mi NE 11.5 mph - 0.01 in Rain Rain
2:53 PM 68.0 °F 62.1 °F 81% 30.07 in 2.0 mi NE 13.8 mph 19.6 mph 0.09 in Rain Heavy Rain
3:53 PM 68.0 °F 64.0 °F 87% 30.04 in 8.0 mi NE 11.5 mph - 0.14 in Rain Light Rain
4:53 PM 69.1 °F 63.0 °F 81% 30.02 in 10.0 mi NE 10.4 mph - 0.00 in   Clear
5:53 PM 70.0 °F 63.0 °F 78% 30.03 in 10.0 mi NE 9.2 mph - N/A   Scattered Clouds
6:53 PM 70.0 °F 63.0 °F 78% 30.02 in 10.0 mi NE 11.5 mph - N/A   Scattered Clouds
7:53 PM 70.0 °F 63.0 °F 78% 30.02 in 10.0 mi NE 6.9 mph - N/A   Mostly Cloudy
8:53 PM 70.0 °F 64.0 °F 81% 30.02 in 10.0 mi NE 8.1 mph - N/A   Partly Cloudy
9:53 PM 70.0 °F 66.0 °F 87% 30.01 in 10.0 mi NE 6.9 mph - N/A   Partly Cloudy
11:53 PM 72.0 °F 63.0 °F 73% 30.00 in 10.0 mi East 9.2 mph - N/A   Mostly Cloudy